Location: Astronomy Club of Akron Observatory
(40.9700°N, 81.5606°W)
Time: 01:54:27
(UTC-05:00)

Envisat - Visible Passes

Search period start: 17 February 2019 00:00
Search period end: 27 February 2019 00:00
Orbit: 764 x 766 km, 98.2° (Epoch: 16 February)

Date Brightness Start Highest point End Pass type
(mag) Time Alt. Az. Time Alt. Az. Time Alt. Az.
17 Feb 2.9 19:03:39 10° SSE 19:08:43 85° ENE 19:13:50 10° NNW visible
17 Feb 6.2 20:47:26 10° W 20:48:22 10° W 20:49:17 10° WNW visible
18 Feb 3.5 18:27:26 10° SE 18:32:06 38° ENE 18:36:47 10° N visible
18 Feb 5.3 20:07:07 10° SSW 20:11:13 24° W 20:15:21 10° NW visible
19 Feb 6.4 06:38:08 10° ENE 06:40:29 13° E 06:42:50 10° ESE visible
19 Feb 3.8 19:29:19 10° S 19:34:16 55° W 19:39:17 10° NNW visible
20 Feb 3.0 18:52:30 10° SSE 18:57:32 68° ENE 19:02:35 10° N visible
20 Feb 6.0 20:34:28 10° WSW 20:37:01 14° W 20:39:34 10° WNW visible
21 Feb 4.9 19:55:28 10° SSW 19:59:55 31° W 20:04:25 10° NW visible
22 Feb 3.3 19:18:00 10° S 19:23:02 70° WSW 19:28:08 10° NNW visible
23 Feb 3.1 18:41:26 10° SSE 18:46:21 53° ENE 18:51:18 10° N visible
23 Feb 5.8 20:22:19 10° SW 20:25:41 18° W 20:29:03 10° NW visible
24 Feb 4.4 19:43:56 10° SSW 19:48:39 39° W 19:53:25 10° NNW visible
25 Feb 3.0 19:06:45 10° SSE 19:11:50 88° WSW 19:16:56 10° NNW visible
26 Feb 5.4 20:10:27 10° SW 20:14:22 22° W 20:18:19 10° NW visible
